{"data":{"norad_id":29479,"epoch":"2026-09-19T21:14:40.536096Z","epoch_age_seconds":67478,"freshness":"FRESH","line1":"1 29479U 06041A   26262.88519139  .00000339  00000+0  66585-4 0  9992","line2":"2 29479  98.0550 277.6475 0017156 352.2776   7.8163 14.68724447 68770","mean_motion":14.68724447,"eccentricity":0.0017156,"inclination_deg":98.055,"raan_deg":277.6475,"arg_perigee_deg":352.2776,"mean_anomaly_deg":7.8163,"bstar":6.6585e-5,"rev_number":6877,"period_min":98.044258944646,"perigee_km":653.05963027757,"apogee_km":677.22653289351,"semimajor_km":7043.2800815855,"source":"CELESTRAK","updated_at":"2026-09-20T09:00:47.142223Z"}}